Wind_Speed
23 24 26 28 28 29 31 32 34 35 35 37 39 40 41 42 41 41 42 44 47 47 46 47 50 50 51 53 55 56 55 55 55 55 55 55 55 55 55 56 57 59 61 61 62 63 67 70 71 72 72 74 75 77 79 81 83 84 85 86 87 88 89 89 90 91 91 91 91 92 92 93 93 93 93 92 91 91 91 91 91 90 90 89 89 88
26 26 28 30 31 32 34 35 37 38 39 39 41 41 42 43 42 42 44 46 47 47 46 48 50 50 51 52 54 55 55 55 55 55 55 54 54 54 55 56 57 59 60 62 65 68 70 70 70 71 72 73 75 78 81 83 85 86 87 88 89 89 90 91 91 92 92 92 93 94 95 96 96 96 95 95 95 94 94 94 93 93 93 92 91 90
29 30 31 33 34 35 36 37 38 39 40 40 40 41 41 42 42 41 42 45 46 47 47 48 50 50 50 51 52 53 54 55 56 55 55 54 53 53 54 56 57 59 62 66 70 71 71 70 70 72 73 75 77 80 83 85 86 87 88 89 90 90 91 92 92 93 94 95 95 96 96 97 97 97 97 97 97 97 97 96 95 95 94 94 93 91
32 32 33 34 35 35 36 36 37 37 39 40 40 41 42 43 44 43 43 44 46 48 49 50 51 51 51 50 51 53 54 55 56 56 55 54 54 54 55 57 59 63 67 70 72 71 71 71 73 74 75 78 80 83 85 86 86 87 88 90 91 92 92 93 93 94 95 95 96 96 96 97 98 98 98 97 97 96 96 95 94 93 93 93 93 92
32 32 32 33 33 34 34 35 36 36 37 39 40 41 42 43 45 46 46 47 47 48 50 52 53 54 53 53 53 55 56 56 57 56 55 55 56 57 59 61 65 68 70 70 70 71 71 73 74 76 79 81 83 85 86 86 87 88 89 91 92 92 93 93 94 95 95 96 97 97 97 96 96 97 96 95 93 91 91 90 89 89 89 90 90 91
30 30 31 32 32 33 34 35 36 38 38 38 40 41 42 43 44 46 48 50 50 50 51 54 57 56 55 56 56 56 58 59 58 56 57 59 60 62 64 66 68 68 68 68 70 71 73 75 77 79 81 83 84 85 86 86 87 89 91 92 92 92 93 94 95 96 96 97 98 99 98 96 93 92 90 88 87 85 83 83 83 83 84 85 86 87
30 31 32 33 34 35 36 37 39 40 40 40 41 42 43 45 46 47 49 51 52 53 53 54 58 59 58 58 58 59 60 59 58 59 61 63 65 66 67 67 66 66 67 69 71 74 76 79 80 81 82 83 85 86 86 87 89 91 92 92 92 94 95 96 97 97 99 99 99 97 95 92 88 85 83 81 80 78 77 76 77 77 78 80 81 83
32 32 34 34 36 38 39 40 41 42 42 42 44 45 45 46 48 49 50 51 53 55 55 54 58 61 61 60 60 60 60 59 59 62 65 66 68 68 67 65 65 67 70 72 75 77 79 80 80 81 82 84 86 87 88 89 90 91 91 93 94 96 97 98 99 100 100 98 96 92 88 85 83 80 78 76 74 72 71 71 71 72 73 73 75 77
34 35 36 37 39 41 41 42 43 44 45 45 46 47 48 48 49 50 51 51 53 56 55 56 60 62 62 61 61 60 59 60 63 66 68 69 69 68 66 66 68 71 75 77 79 79 79 79 80 81 83 85 87 88 89 89 90 91 93 95 97 98 99 100 100 100 98 95 90 86 82 80 78 74 72 71 69 67 66 66 65 66 67 68 69 71
36 38 39 39 41 42 42 44 45 46 47 47 47 48 48 50 51 52 53 52 54 56 56 57 61 63 62 59 60 61 61 64 67 68 70 70 69 68 68 69 72 75 78 79 80 79 79 80 81 83 85 87 88 88 88 88 90 93 95 97 99 100 101 101 100 97 93 89 85 81 78 76 73 69 67 66 64 62 61 60 59 58 59 61 62 64
38 40 41 41 43 44 44 45 47 48 48 49 49 49 50 51 52 53 54 54 55 55 55 57 59 62 62 58 58 62 64 66 68 70 71 70 69 69 70 72 76 79 80 80 79 79 80 81 82 84 85 86 86 86 88 91 94 96 97 99 99 100 100 99 96 91 87 83 80 76 73 71 68 65 62 61 58 55 52 51 49 50 51 53 55 56
39 41 42 43 45 46 47 47 48 49 49 50 50 51 53 54 53 55 54 54 56 55 53 56 58 60 62 60 60 63 65 67 68 69 70 70 70 70 71 75 79 81 81 80 79 79 79 81 82 84 85 85 86 88 91 94 97 98 99 99 100 99 97 93 88 84 80 77 74 71 68 64 62 59 56 53 49 45 42 41 42 44 45 47 48 48
40 43 44 46 48 48 49 50 49 49 50 51 51 52 55 57 57 58 56 55 57 56 54 55 57 59 59 60 62 64 66 68 69 69 70 70 70 71 74 78 81 81 80 79 78 78 79 81 83 84 85 87 89 92 95 97 98 99 99 100 99 96 91 85 80 77 74 72 69 66 62 58 55 51 47 42 39 36 36 37 40 41 42 43 43 44
41 45 47 48 49 49 51 52 51 51 51 51 52 54 55 57 58 60 59 59 59 58 57 56 58 59 59 61 63 65 67 69 69 70 69 69 71 74 76 80 83 82 80 78 77 78 80 82 84 86 88 91 93 94 96 98 99 99 100 99 95 89 83 78 74 71 69 66 63 60 56 51 45 40 36 34 34 34 36 38 38 38 40 40 40 42
45 46 48 50 51 51 51 53 53 53 53 53 53 54 54 55 58 60 61 62 62 62 60 58 59 61 62 64 65 66 68 69 70 69 69 71 73 74 76 80 83 82 79 78 78 80 83 85 87 89 91 92 94 95 97 98 99 100 98 94 87 81 76 72 69 66 63 60 57 53 48 42 36 32 31 32 33 34 36 37 36 36 37 37 38 40
49 47 49 51 51 52 53 53 53 53 54 54 53 53 54 55 57 60 61 62 63 65 63 60 60 61 63 66 67 67 68 68 69 70 70 72 73 74 77 81 83 82 80 81 83 85 87 88 89 90 91 93 95 96 98 99 99 97 93 86 79 75 72 68 65 62 59 55 52 46 39 34 30 30 31 32 33 34 35 34 32 33 34 34 35 36
53 49 49 52 52 54 56 55 54 54 54 54 53 52 54 56 57 60 61 60 60 65 66 63 61 62 64 66 66 66 67 68 69 71 71 73 75 76 79 81 83 84 85 86 87 88 89 89 90 90 92 94 95 97 98 98 95 90 84 79 74 70 67 64 61 58 55 50 45 38 33 30 29 30 32 32 31 32 32 30 29 30 31 31 32 33
57 53 51 54 55 55 57 56 54 54 53 53 54 53 55 57 59 60 62 62 61 65 68 65 64 66 67 68 68 67 68 69 70 72 74 76 77 77 79 81 84 86 88 89 89 89 90 91 91 92 93 94 96 97 96 92 86 81 77 74 70 67 63 60 56 53 50 45 37 32 30 29 30 31 31 30 30 30 29 27 27 28 28 29 30 31
60 57 54 55 57 56 58 57 55 55 55 54 54 54 56 58 59 60 62 64 64 68 71 69 68 70 70 69 70 69 69 70 72 75 77 77 77 78 81 83 86 88 89 89 90 90 91 92 92 92 94 95 96 94 89 83 78 74 71 69 66 63 59 56 52 48 45 39 32 29 29 29 31 31 30 28 28 27 25 24 25 26 26 27 28 30
60 61 58 57 58 57 58 58 58 57 57 56 56 55 56 57 58 60 61 62 64 68 72 73 73 74 73 72 70 69 71 74 76 78 78 77 77 79 83 86 88 89 89 90 91 92 92 92 92 93 95 95 92 86 80 76 72 70 67 64 62 59 55 52 48 44 39 33 29 28 29 30 30 30 28 26 25 24 23 23 24 24 25 26 27 27
61 63 62 60 59 59 59 59 60 59 58 58 57 56 56 56 58 61 62 60 61 66 70 73 77 78 74 72 71 72 76 78 79 79 77 77 78 81 85 87 89 89 90 91 91 91 92 92 93 94 93 89 84 78 74 70 68 66 63 60 58 55 52 47 42 38 32 28 28 29 30 31 30 28 26 24 23 22 21 22 23 23 23 24 24 24
62 64 65 64 62 62 60 60 61 61 60 59 58 57 57 57 58 62 65 63 62 66 67 70 77 79 72 70 73 76 78 80 79 78 78 79 81 84 87 88 89 90 91 91 91 91 92 93 92 90 86 81 77 73 69 67 65 63 60 57 55 52 48 42 37 32 27 26 27 29 30 30 28 26 24 22 22 21 21 21 22 21 21 22 22 23
63 64 66 66 66 65 64 64 65 65 63 60 58 58 58 59 59 61 65 66 65 67 66 69 77 78 71 71 75 77 79 80 80 79 80 82 84 86 87 88 89 90 90 90 91 91 91 90 87 83 79 75 72 68 65 63 62 61 57 54 53 50 43 37 31 26 24 25 27 28 29 27 26 24 22 21 21 21 21 21 21 20 20 20 21 21
63 65 67 67 67 65 65 67 69 68 65 62 59 58 59 59 59 60 63 65 68 69 66 70 77 76 71 73 76 77 79 80 79 80 82 83 85 86 87 89 90 90 90 90 90 90 87 84 81 77 74 70 67 65 63 61 59 58 54 51 50 47 39 31 26 23 23 25 26 27 26 25 24 22 21 21 20 20 20 20 20 20 20 20 20 20
64 66 68 69 70 69 68 69 71 70 67 63 60 59 60 60 60 61 63 64 68 70 68 72 77 76 73 74 76 77 78 79 79 80 82 84 85 87 88 89 89 89 89 89 87 85 83 80 77 73 70 67 65 63 61 59 57 55 52 49 48 42 33 26 23 22 23 24 25 25 24 23 22 20 20 20 20 20 20 20 20 20 20 20 20 20
66 67 68 69 71 73 73 72 72 72 70 66 63 61 61 62 62 63 64 65 68 72 72 72 76 79 77 74 76 78 79 80 81 82 83 85 87 88 89 90 89 88 87 85 83 82 79 77 74 71 68 65 62 60 59 57 55 53 49 47 44 37 27 22 21 21 23 23 23 22 21 21 20 19 19 20 20 20 20 20 20 20 21 21 20 20
67 68 68 67 68 71 73 72 71 72 70 68 66 64 63 63 64 65 65 66 68 73 77 74 75 80 80 76 78 81 81 82 84 84 86 87 88 89 90 89 87 84 82 81 80 79 77 75 73 70 67 64 61 58 57 54 53 50 47 44 40 31 23 20 20 21 22 22 21 20 19 19 19 19 19 20 20 20 20 21 21 21 21 21 21 20
68 69 69 68 68 71 73 73 72 71 69 68 68 67 65 65 66 67 67 68 69 74 79 78 76 80 80 78 81 82 83 84 85 86 87 88 89 89 87 83 80 79 78 78 78 78 77 74 72 69 66 63 60 57 55 52 50 47 44 42 36 26 20 19 20 21 21 20 20 18 18 18 19 19 19 20 20 21 21 21 21 21 21 21 21 20
69 70 71 70 70 73 75 74 73 73 71 69 69 69 68 67 68 70 70 71 71 74 79 80 80 81 80 80 82 83 83 85 86 87 88 87 86 84 80 78 76 76 77 78 78 78 76 74 71 68 66 62 60 57 54 50 47 43 41 38 30 22 19 20 20 20 19 19 17 17 18 18 18 19 19 19 20 20 21 21 21 21 21 21 20 20
70 71 72 72 71 73 76 75 75 75 74 72 71 70 70 69 70 72 73 72 73 76 78 80 81 81 80 81 83 83 84 85 86 86 85 83 80 78 76 76 76 77 78 78 79 77 75 73 69 66 64 61 59 56 52 49 45 42 38 33 25 19 19 20 20 18 18 17 16 16 17 18 18 18 18 18 19 19 20 20 20 20 20 20 20 19
72 72 73 74 73 74 76 77 76 76 76 75 73 72 71 72 73 75 75 75 76 79 81 81 83 83 82 83 84 84 84 85 84 83 80 78 77 76 76 76 77 78 79 79 78 77 75 72 68 65 62 60 58 55 51 47 44 40 36 29 20 18 18 19 18 16 16 16 15 15 17 18 18 18 18 18 18 18 18 19 18 18 18 18 18 18
74 73 74 75 75 75 78 79 78 78 78 77 75 74 74 76 78 78 78 77 77 80 84 85 87 87 86 85 85 85 85 85 83 80 78 76 76 75 76 77 78 79 79 79 78 77 75 72 68 65 61 58 56 53 49 45 41 38 34 25 17 16 18 18 16 15 15 16 15 15 16 17 18 19 18 17 17 17 18 18 18 17 17 17 16 16
75 75 75 77 77 77 80 81 81 81 82 80 78 77 77 79 81 82 81 78 77 80 85 87 88 87 86 86 86 85 85 84 82 79 77 77 76 76 78 79 79 79 79 79 77 76 74 71 67 64 60 57 54 51 47 43 39 37 32 21 15 15 16 16 14 14 14 15 16 16 17 17 17 18 17 16 16 15 16 17 17 17 16 16 15 14
77 77 77 78 80 80 82 84 84 83 83 83 80 79 80 81 83 85 84 81 81 84 85 87 87 86 86 86 86 86 84 82 80 76 75 76 77 78 80 80 79 79 78 78 76 74 72 69 66 63 59 55 52 48 45 40 36 34 29 19 14 15 15 14 13 14 15 15 16 16 17 16 16 16 16 16 14 14 15 16 15 15 15 14 13 13
79 79 78 78 81 82 84 87 87 84 83 83 82 81 81 82 83 86 86 82 83 87 87 88 88 87 86 86 86 85 83 81 78 74 74 76 78 80 81 82 81 79 78 77 75 73 70 67 64 60 57 53 50 46 42 38 34 31 25 17 14 14 14 13 13 14 15 16 16 17 17 17 17 16 16 16 15 14 14 14 13 12 13 12 12 12
80 80 79 79 81 83 85 87 88 87 86 85 84 82 83 84 84 88 90 87 87 89 90 90 90 88 88 88 86 84 82 80 76 74 74 77 79 80 82 83 82 81 78 76 73 71 68 64 61 58 55 52 48 44 39 35 32 28 21 14 13 14 13 13 13 14 15 16 17 18 18 18 18 17 17 16 15 15 14 12 11 11 11 11 12 12
81 81 81 80 82 84 86 87 89 90 89 87 85 83 84 85 86 89 92 91 90 91 91 92 92 90 90 89 87 84 83 81 78 75 75 78 80 81 82 83 82 81 78 74 71 68 65 62 58 55 52 49 45 41 37 32 30 25 17 12 12 13 13 13 14 15 16 17 18 19 19 20 19 19 18 17 16 16 14 12 11 11 11 11 11 10
83 83 82 81 83 85 87 88 90 91 91 88 86 84 84 85 86 89 92 92 92 93 93 93 93 92 91 90 88 85 84 84 82 79 79 81 82 84 85 83 82 80 77 73 70 66 62 59 55 51 48 45 41 38 34 30 27 21 13 10 11 12 12 13 14 15 16 17 18 20 20 20 19 17 16 15 15 15 13 12 11 11 11 12 11 11
83 83 83 82 83 85 87 88 89 89 89 87 85 85 85 86 87 90 92 93 94 95 95 95 94 93 92 90 88 85 84 85 85 83 83 85 86 87 87 85 82 79 75 71 67 63 59 56 52 48 45 42 38 34 29 26 23 17 11 9 11 12 12 12 13 14 16 17 19 19 18 18 16 14 12 11 11 11 12 12 12 12 13 13 13 13
84 84 84 83 83 85 87 88 89 89 88 86 85 86 88 89 89 92 94 96 98 97 96 96 96 94 93 91 88 85 83 84 85 86 86 88 89 89 88 85 82 77 73 68 63 59 55 51 48 45 42 39 35 31 26 23 19 13 9 9 10 11 11 12 12 14 16 17 17 16 16 15 12 8 6 5 6 9 12 13 13 14 14 15 15 13
85 85 84 84 84 85 86 89 91 91 88 86 85 85 88 90 92 94 96 97 99 99 98 97 96 95 94 92 88 85 83 82 84 86 87 89 91 90 88 83 77 72 68 64 59 55 51 48 44 42 40 37 33 28 24 20 15 9 7 8 10 10 10 11 12 14 15 15 14 12 12 10 6 2 1 3 7 10 12 13 14 16 17 16 15 13
86 86 85 85 85 85 86 89 92 91 89 89 87 85 87 91 94 96 97 97 98 99 100 99 98 96 96 93 89 86 84 83 84 86 88 90 92 91 86 80 73 67 63 59 56 53 49 45 41 39 37 34 30 26 22 17 10 6 6 8 9 10 10 11 12 13 14 13 10 9 7 6 3 4 6 7 8 10 12 14 17 18 18 16 14 13
87 87 87 86 86 87 88 89 89 89 88 88 89 88 88 91 93 95 97 98 99 100 101 101 100 98 96 95 92 88 85 84 84 86 88 91 93 91 84 76 70 66 62 58 55 52 48 43 39 36 34 31 27 23 20 13 6 5 5 7 9 9 10 11 12 12 12 10 7 6 4 3 3 6 8 8 9 11 13 17 19 18 17 15 14 12
87 88 87 87 87 88 89 87 86 87 87 86 87 88 89 90 92 94 97 99 101 102 103 104 102 99 97 96 93 89 87 86 86 88 91 94 95 91 82 74 68 64 61 57 55 51 47 42 38 34 32 29 24 21 17 9 4 4 5 7 8 9 10 11 11 11 11 8 5 4 3 2 3 6 8 8 9 12 16 19 19 17 15 14 12 11
87 88 88 88 87 87 88 87 87 88 89 87 87 87 88 90 92 95 97 100 103 104 105 105 103 100 98 96 94 90 89 88 89 91 94 97 96 89 80 72 67 64 60 57 53 49 45 40 36 33 30 26 23 20 14 6 2 4 6 7 9 9 10 10 10 10 9 7 4 3 2 1 2 5 7 8 11 15 18 19 18 16 15 13 11 10
86 88 88 88 87 87 87 87 87 89 91 91 89 89 89 91 93 96 99 101 104 105 105 105 104 101 99 97 95 92 90 89 90 92 95 98 96 88 79 71 67 63 60 56 52 47 42 37 34 30 26 23 21 17 11 4 2 4 6 7 9 9 10 9 9 9 8 6 3 3 3 1 1 4 6 9 13 17 19 19 17 15 14 12 10 8
84 87 88 88 88 88 88 88 88 89 92 93 92 91 91 92 94 97 100 103 105 106 106 105 104 102 100 98 96 93 91 90 91 93 97 99 96 87 78 71 67 63 59 55 50 45 40 35 31 27 23 20 18 14 8 4 3 4 6 8 9 10 10 9 8 8 8 6 3 3 3 2 2 4 7 11 16 19 20 18 16 15 13 11 9 6
83 87 89 89 89 89 89 90 89 89 91 93 93 93 93 94 95 97 100 103 106 107 107 106 105 103 102 100 97 94 92 91 92 94 98 100 95 86 77 72 67 62 58 54 49 43 38 33 29 25 22 19 15 10 6 4 4 6 7 8 9 10 10 9 8 8 7 5 3 2 3 1 2 5 8 13 18 20 20 18 16 14 13 10 7 5
84 86 89 90 90 89 89 90 90 91 92 93 95 95 95 96 97 99 101 104 106 108 109 109 107 105 102 100 98 95 93 92 92 94 98 99 94 85 77 72 67 62 57 53 48 42 36 31 28 24 21 17 12 8 5 5 5 6 8 8 10 11 11 10 9 7 6 5 3 2 2 1 3 7 10 15 20 21 20 19 17 15 12 9 6 4
83 86 88 91 91 90 90 92 93 95 96 97 98 98 97 97 98 100 102 104 106 109 110 111 109 106 103 101 99 96 94 92 92 94 97 99 94 84 77 71 66 60 56 51 46 40 35 31 27 24 20 15 10 7 6 6 7 8 9 10 10 12 12 11 9 7 5 4 3 1 1 1 4 8 12 17 22 22 21 19 17 15 11 8 5 3
83 86 89 92 93 92 92 92 94 96 97 98 99 99 98 97 98 100 102 104 107 110 112 112 111 109 105 102 99 97 95 93 92 93 96 98 93 84 76 70 64 58 53 49 44 39 34 30 27 23 18 14 10 8 7 7 9 10 11 12 12 13 12 11 10 7 5 3 2 1 1 2 6 9 13 19 23 22 21 19 17 14 11 8 6 3
Wind_Direction
342 338 337 335 330 328 328 327 327 326 325 325 324 324 323 321 321 321 318 316 315 315 316 313 310 312 312 312 312 311 311 309 309 309 309 309 308 308 306 302 298 297 298 299 297 295 295 297 300 300 300 299 299 299 298 299 299 299 298 296 295 294 293 293 292 291 290 289 288 287 286 285 283 282 281 280 278 277 275 274 272 270 268 266 264 262
338 333 333 332 330 329 329 329 329 328 327 326 325 324 322 320 321 321 317 315 313 313 315 313 311 313 312 311 311 310 309 309 310 310 310 310 309 307 303 300 299 298 297 296 296 297 299 301 301 299 299 298 298 298 298 298 298 297 296 295 295 295 294 293 292 291 291 290 289 288 287 285 284 282 281 279 277 276 274 273 271 270 268 266 264 262
335 333 333 333 332 332 332 331 330 329 327 325 324 322 321 319 319 320 316 313 312 313 317 316 314 315 313 311 310 309 309 310 311 311 311 311 309 306 303 301 299 297 296 297 299 301 302 302 301 299 299 298 298 298 297 297 297 297 297 297 296 295 295 294 293 293 292 291 290 289 288 286 285 283 281 280 278 276 274 272 270 269 267 265 263 260
337 335 335 335 334 333 333 332 330 328 325 324 324 322 321 319 319 320 318 317 316 316 317 317 317 318 315 313 312 310 311 312 312 313 314 313 310 307 304 300 298 298 299 300 302 303 303 302 301 300 299 298 297 297 297 298 298 298 298 297 296 296 296 296 296 295 294 292 291 290 289 288 286 285 283 281 279 277 275 273 270 268 266 264 262 260
338 337 337 337 336 335 334 332 330 329 327 325 324 323 323 321 319 319 319 321 322 319 317 317 319 321 319 317 315 314 315 315 315 317 316 313 310 306 303 300 300 301 303 304 304 304 303 301 300 300 299 298 298 298 299 300 300 299 298 298 298 299 299 298 296 295 294 293 292 291 290 289 287 286 284 282 279 277 275 273 270 268 266 263 261 259
342 340 340 339 339 338 336 335 333 333 333 329 327 326 324 323 322 321 321 322 325 324 322 319 319 321 321 318 318 319 319 318 318 318 315 311 308 305 304 304 304 305 306 305 304 303 302 301 301 301 300 300 300 300 301 301 300 299 300 300 300 300 299 297 297 296 296 295 294 293 292 290 288 285 283 282 279 277 275 273 270 268 266 263 261 258
346 343 343 343 342 341 340 339 338 337 336 333 331 330 327 327 326 325 323 323 325 326 325 320 317 320 322 320 321 322 320 319 318 316 312 309 308 308 307 307 307 307 306 304 302 302 302 302 302 302 302 301 301 301 301 301 301 301 301 301 300 299 299 298 298 298 298 297 296 295 293 291 289 286 284 282 280 277 275 272 270 267 265 263 262 259
349 347 347 347 345 344 343 342 340 338 337 336 334 333 331 330 328 327 325 325 325 326 325 321 317 320 322 323 324 322 319 318 317 313 311 311 310 310 310 308 307 305 304 303 303 304 304 305 304 303 303 302 302 302 303 302 302 301 301 300 300 300 301 301 301 300 299 298 297 295 293 291 289 287 285 283 280 278 275 272 269 267 265 263 261 259
351 349 349 349 347 346 344 342 341 340 339 338 336 335 333 331 329 327 327 326 325 326 327 322 320 321 323 325 324 321 319 318 316 314 313 312 312 311 309 306 305 304 304 305 306 307 308 307 305 304 303 303 304 304 303 302 301 301 301 302 303 303 303 303 303 302 301 299 298 296 294 292 290 288 285 283 281 278 276 273 270 267 265 263 261 259
353 351 351 350 348 347 345 343 342 341 340 339 337 336 334 331 330 329 328 328 327 329 328 324 322 321 322 324 322 318 318 317 315 314 314 313 312 310 307 306 306 306 307 309 310 309 308 306 305 305 305 304 304 303 302 301 301 302 303 304 305 305 305 304 304 303 301 299 298 296 294 292 291 289 286 283 281 278 275 273 270 267 265 262 260 259
353 351 351 350 348 348 345 343 342 341 340 338 337 336 334 332 331 330 330 328 328 332 330 325 323 320 320 322 319 317 317 315 314 314 313 313 311 309 308 307 307 308 310 311 310 308 306 306 306 305 304 303 302 301 301 301 302 303 304 305 305 305 305 305 303 302 300 299 297 296 294 293 291 289 286 283 280 277 274 271 268 265 263 262 260 259
354 351 350 349 348 346 345 343 342 341 339 338 337 334 333 334 333 333 333 330 330 334 331 326 324 321 320 322 319 317 316 314 314 314 313 312 310 308 307 307 308 310 311 310 309 308 307 306 305 303 302 301 301 302 302 303 304 305 305 305 305 305 305 304 302 301 299 298 297 296 295 293 291 288 285 282 279 275 272 268 265 263 261 260 260 259
356 350 348 347 347 346 344 344 343 341 340 338 337 334 332 333 333 334 334 332 334 335 333 329 326 323 322 322 319 317 316 315 315 314 313 312 309 308 309 310 311 312 311 310 309 308 305 303 302 302 302 303 303 304 305 305 305 305 306 306 306 306 305 303 302 300 299 298 297 296 294 292 289 286 283 279 276 273 271 267 263 261 260 259 258 258
357 350 348 347 347 345 343 344 344 343 341 340 338 336 333 330 329 331 332 332 334 336 337 333 327 325 324 321 318 318 317 316 316 315 313 311 310 311 312 312 313 313 312 310 308 305 303 303 303 304 305 305 306 306 306 306 306 307 307 307 307 306 305 303 302 301 300 298 297 295 294 291 287 282 278 275 273 272 271 268 264 261 260 258 256 255
359 353 349 348 348 346 344 344 344 343 343 342 340 337 333 329 327 328 329 330 330 333 339 338 329 326 324 321 320 320 319 318 317 315 313 312 313 312 311 311 312 312 311 309 307 305 305 306 306 307 307 307 308 308 308 308 308 308 309 308 308 307 305 304 303 301 300 299 297 295 292 288 282 278 275 274 273 273 270 268 265 263 260 257 254 252
359 357 351 350 349 346 346 346 345 344 343 343 341 337 333 331 328 328 330 331 328 328 336 339 333 328 323 321 323 321 320 318 315 313 313 314 314 312 310 311 311 311 310 309 308 308 308 308 308 309 309 309 309 309 309 310 310 310 310 309 308 307 306 305 304 302 300 298 296 293 288 282 278 277 276 276 276 274 270 268 265 261 259 256 253 250
357 359 354 350 350 348 347 347 346 344 343 342 341 337 334 333 331 329 330 333 329 326 333 337 333 329 323 323 325 322 318 315 313 314 315 315 315 313 311 311 311 311 311 311 310 310 310 310 310 311 311 311 311 311 311 311 311 311 310 310 309 308 307 306 305 303 300 297 294 289 282 278 278 279 279 279 277 273 270 267 263 259 257 256 252 248
355 359 357 352 351 349 348 349 347 346 344 343 341 337 334 335 335 331 329 331 330 327 331 335 332 327 325 324 325 322 318 316 316 317 317 317 316 313 312 312 312 312 312 312 312 312 312 312 312 313 312 312 312 312 312 312 312 311 311 311 310 309 308 306 305 302 299 296 290 283 278 279 281 282 281 280 276 271 268 265 261 258 256 254 249 246
354 357 359 354 352 351 350 350 349 347 346 344 342 339 336 335 335 333 331 330 329 326 329 333 331 327 326 327 326 323 320 318 319 319 319 318 316 313 313 313 313 313 312 312 313 313 313 314 314 314 313 313 313 313 313 313 312 311 311 311 311 310 309 307 305 300 297 293 285 279 279 282 284 284 282 280 275 270 267 264 261 258 255 251 247 243
354 356 359 357 354 352 351 350 350 349 348 346 344 341 338 335 333 335 336 333 328 325 326 329 330 327 327 329 327 322 319 319 321 322 321 318 316 315 314 314 313 313 313 314 314 314 314 315 315 314 314 314 314 314 314 314 313 312 312 312 311 310 309 307 303 299 294 288 281 281 284 286 286 285 284 280 274 269 266 264 262 258 254 250 246 243
356 356 358 358 355 353 352 351 350 350 349 347 346 343 338 336 334 335 340 338 329 326 327 327 328 329 328 328 325 320 320 323 323 322 320 318 316 315 314 314 314 314 314 315 315 315 315 314 314 314 315 315 315 316 316 315 314 314 314 313 312 311 310 306 301 296 289 282 281 284 287 288 288 286 284 280 273 269 267 265 262 258 253 249 247 245
357 356 356 357 356 355 354 352 351 351 350 348 347 344 340 338 336 334 339 340 331 329 330 324 325 331 331 326 322 321 323 325 323 321 319 317 316 315 315 315 315 315 315 315 315 315 315 314 314 315 316 317 317 317 317 316 315 315 315 314 313 313 311 305 299 291 283 279 282 286 288 288 288 286 282 277 271 269 268 265 261 257 252 250 249 247
357 356 356 355 355 355 355 353 351 351 351 350 348 346 343 341 339 335 336 338 333 332 331 323 324 332 331 324 322 324 324 323 321 319 317 316 315 315 315 315 315 315 315 316 316 315 314 315 316 318 318 318 318 318 318 317 316 316 316 316 315 314 311 303 295 286 280 282 286 288 288 288 288 285 279 273 269 268 266 263 259 257 254 254 254 252
356 355 355 354 353 354 354 352 351 352 352 352 350 348 345 343 341 338 337 336 334 334 330 323 327 331 328 324 324 323 321 319 317 316 315 315 315 315 315 314 315 316 317 316 316 315 316 317 319 319 320 320 320 319 318 318 318 317 317 317 316 314 310 300 290 283 282 287 289 289 289 288 286 282 275 270 268 266 264 262 260 260 260 261 261 260
356 356 355 353 351 353 354 353 352 353 353 353 352 350 347 345 342 340 339 336 335 336 329 324 328 330 327 325 323 319 318 317 316 316 316 317 316 316 316 317 317 318 318 317 317 317 319 320 320 321 322 322 321 320 319 319 320 319 319 318 317 314 307 296 285 283 286 290 290 288 287 286 283 278 272 269 267 266 263 262 261 261 263 263 263 262
356 356 356 356 353 353 355 354 353 354 354 354 353 351 349 347 343 341 340 337 335 335 333 328 327 327 328 326 321 319 319 319 319 319 319 319 319 319 319 319 319 319 318 318 319 319 320 321 322 324 324 323 322 321 320 320 321 321 319 319 318 313 304 291 284 286 290 291 288 285 284 282 280 277 272 269 267 266 264 262 262 262 262 262 262 261
356 356 357 357 355 354 355 355 353 353 354 354 353 353 351 349 346 343 341 338 335 334 336 334 327 326 329 327 322 322 323 322 321 321 321 321 321 321 320 320 320 320 320 320 320 320 322 324 325 325 325 324 323 322 321 322 322 321 320 320 317 310 298 288 286 290 292 290 286 284 282 280 278 275 272 269 268 266 265 264 263 262 262 262 262 262
355 355 356 358 356 354 355 355 353 353 354 353 353 353 351 350 348 346 343 341 337 333 336 336 330 328 330 327 324 325 325 323 323 324 324 323 322 321 320 320 321 322 322 321 321 323 325 326 326 325 325 325 324 323 322 323 323 321 321 321 316 306 294 288 291 292 291 287 285 284 283 280 276 274 271 269 268 267 266 265 264 264 264 263 263 264
355 354 355 357 356 355 355 355 354 354 354 354 353 352 352 350 349 348 346 343 339 335 334 335 333 331 330 327 326 327 326 325 325 325 324 323 321 321 321 323 324 324 323 323 324 325 326 326 326 326 326 326 325 325 324 323 323 322 322 320 312 300 291 291 294 293 288 284 284 284 284 281 278 275 273 270 268 267 266 265 264 265 265 265 265 265
356 354 354 355 357 355 355 355 354 354 355 355 354 353 352 351 350 349 348 345 341 338 336 334 333 332 331 329 328 328 327 326 325 325 324 323 323 324 325 326 326 325 325 325 326 326 326 326 327 326 326 327 326 326 325 325 324 323 324 320 308 293 290 293 295 293 287 284 283 283 283 283 281 278 276 273 270 268 266 265 265 265 265 266 267 266
355 355 353 354 356 355 354 355 355 354 355 355 355 354 354 353 351 351 350 347 343 340 338 336 334 334 333 331 330 329 327 326 326 326 326 326 326 327 328 328 327 327 327 326 326 326 326 327 327 327 327 327 327 326 326 326 324 324 325 320 303 290 291 294 295 293 289 285 282 281 282 282 282 280 277 276 273 270 268 265 264 265 265 265 265 264
355 355 354 353 355 355 354 355 356 355 355 355 354 355 355 355 353 352 351 348 343 339 339 338 337 336 335 333 331 330 328 327 329 331 330 329 329 329 329 329 330 329 327 326 326 326 327 327 327 327 327 327 327 327 327 327 324 324 326 319 298 287 292 294 294 294 292 288 283 282 281 282 282 280 277 275 274 272 269 266 265 265 266 265 265 264
355 354 354 353 354 355 355 355 356 356 355 356 356 356 356 356 355 354 352 350 345 340 339 339 338 337 335 333 331 331 331 331 333 334 333 331 331 331 331 331 331 329 327 327 327 326 327 327 327 327 327 327 327 327 327 327 325 324 325 317 293 288 293 295 296 298 296 291 288 288 287 284 283 281 279 276 273 270 268 265 263 263 264 264 263 261
354 354 354 353 353 355 355 355 356 357 357 357 357 357 356 356 355 354 354 351 346 343 342 340 339 338 336 334 333 333 334 334 335 336 334 332 332 332 332 332 331 329 328 327 327 327 327 327 326 326 326 327 327 327 327 327 325 325 324 313 294 293 298 299 302 303 300 295 294 294 292 288 285 283 283 281 276 269 264 261 258 258 259 260 258 255
355 354 355 354 354 355 355 355 356 358 359 358 357 357 357 356 354 354 355 352 346 344 344 341 341 339 337 336 336 336 336 336 337 337 335 334 334 333 332 332 331 330 329 328 328 327 327 326 326 326 326 327 327 327 327 326 325 325 322 307 294 298 302 304 308 307 303 301 300 298 296 292 288 285 284 282 277 270 262 257 252 250 251 252 249 245
355 355 355 354 354 355 356 357 357 358 358 358 358 358 358 357 353 352 354 353 348 345 344 342 341 340 338 338 339 339 338 338 340 340 337 336 336 334 332 332 331 331 330 329 328 327 326 326 326 326 326 327 327 327 327 326 325 326 321 302 294 302 306 310 313 311 307 305 304 302 299 295 292 288 284 280 274 266 260 254 244 239 241 241 238 232
356 355 355 355 355 355 356 357 357 358 358 358 359 359 358 357 354 351 351 352 349 346 344 343 342 342 340 340 340 340 340 340 342 342 340 339 338 336 334 332 331 331 331 330 328 327 326 326 326 325 326 326 327 327 327 326 325 325 316 296 295 304 309 315 318 314 310 309 308 305 302 299 296 291 285 278 267 258 253 245 233 228 230 229 222 208
356 356 356 356 356 356 357 357 357 358 359 360 359 359 358 356 355 353 352 351 349 347 346 345 344 343 342 341 342 342 341 341 343 344 342 341 339 337 335 334 332 332 332 331 329 329 328 327 326 325 326 327 328 328 327 325 325 322 310 292 297 305 311 320 323 317 313 313 312 309 306 303 300 294 284 272 260 250 241 229 220 218 217 210 196 181
357 356 356 357 357 357 358 358 358 358 359 359 360 359 358 357 355 354 353 352 351 349 348 346 345 344 343 343 343 343 342 342 344 344 343 342 341 339 337 335 334 334 333 333 332 330 329 328 327 327 327 327 328 328 327 326 325 319 303 291 300 308 315 324 327 321 318 319 317 314 311 309 306 298 283 265 250 236 221 210 206 205 200 188 174 168
357 357 357 357 357 358 359 359 359 359 358 358 359 359 359 359 356 353 353 353 353 351 349 347 347 346 345 344 345 345 345 343 343 344 343 342 341 339 337 336 336 336 336 336 335 332 331 329 328 328 328 328 329 330 329 329 325 314 296 294 305 311 319 330 332 327 325 325 323 320 318 316 313 304 280 246 221 207 198 195 195 191 180 169 163 165
358 357 357 357 358 359 359 359 359 360 359 359 359 359 358 358 357 355 354 353 352 351 350 348 348 347 346 346 346 347 347 345 344 344 344 343 341 340 338 337 337 338 338 338 337 336 335 333 331 330 329 330 331 332 332 332 326 307 292 298 308 314 324 337 339 333 332 333 330 327 325 323 327 346 142 163 172 179 182 183 182 175 164 158 160 165
358 358 358 358 358 359 0 360 360 0 0 0 0 360 358 357 357 356 356 354 352 351 351 350 349 348 348 347 348 348 348 347 346 345 345 344 342 341 340 340 340 341 342 342 341 339 338 336 334 332 331 331 332 333 335 336 325 299 292 304 313 318 330 343 344 338 340 341 335 333 335 338 22 99 120 136 152 164 170 172 170 162 156 156 159 164
359 359 359 359 359 359 1 2 0 360 360 360 0 1 360 358 356 355 355 354 353 352 352 351 350 349 349 348 349 350 349 348 347 346 346 345 344 343 342 342 342 344 345 345 343 342 341 339 337 335 333 334 335 335 339 340 326 295 300 313 319 322 335 349 347 343 346 346 339 339 351 14 76 107 122 135 147 157 162 164 160 155 153 155 159 165
359 360 360 360 360 0 2 3 1 360 360 359 359 0 0 359 357 355 354 354 354 354 353 352 351 350 350 349 350 351 350 349 348 347 347 347 346 345 345 345 346 347 347 346 345 343 342 342 340 338 336 337 338 340 344 348 331 301 312 322 323 327 341 351 348 347 350 349 341 342 357 53 104 117 128 138 151 157 158 157 155 152 152 155 162 170
0 1 1 1 1 1 2 3 2 0 360 0 360 0 1 360 358 357 355 354 355 355 354 353 352 351 350 350 351 351 351 350 349 349 348 348 348 347 347 348 349 349 348 347 346 345 344 343 342 340 340 340 341 344 350 1 347 317 325 330 328 332 344 348 347 349 351 348 343 341 337 349 134 135 137 146 156 157 156 155 152 150 152 159 169 177
0 1 1 1 1 1 1 2 2 1 0 1 1 1 1 1 359 358 357 356 356 355 355 354 353 352 351 351 351 352 352 351 351 350 349 349 349 349 349 350 351 350 349 348 348 348 347 346 344 343 343 344 345 347 356 18 9 333 336 336 331 333 343 347 348 351 350 344 340 336 327 321 153 146 144 152 159 158 155 154 152 150 155 164 174 182
360 0 1 1 1 1 1 1 2 2 1 1 2 2 2 2 1 360 359 358 357 356 356 355 354 353 352 352 352 353 353 352 351 351 350 350 351 351 351 352 353 351 350 350 351 352 351 349 348 348 349 350 350 352 3 26 11 346 345 340 331 332 342 349 349 349 347 342 335 330 330 340 137 146 147 154 160 159 156 152 150 152 159 166 172 182
359 360 1 1 1 1 1 1 2 2 1 1 1 2 2 3 3 2 0 359 359 358 357 356 355 354 353 353 353 354 354 353 352 352 352 352 352 353 353 354 354 353 352 353 354 355 354 353 354 356 357 357 358 3 15 23 5 351 348 342 333 332 342 351 350 346 344 340 333 328 337 356 140 148 150 156 161 160 155 152 152 156 162 165 166 176
359 360 0 1 1 1 1 0 1 2 1 1 2 2 2 3 3 3 1 0 359 358 358 357 356 355 354 354 354 355 355 355 354 353 353 353 354 354 355 355 355 354 354 355 357 358 358 358 360 1 2 5 10 18 23 17 3 352 348 345 337 332 339 350 349 343 341 338 327 319 340 26 148 153 155 160 163 161 156 155 158 162 163 163 160 161
359 359 360 0 1 1 1 0 1 1 2 2 3 3 3 3 3 3 2 1 360 359 358 358 358 357 356 355 355 355 356 356 355 354 354 354 355 356 356 356 357 356 356 357 360 2 3 3 4 5 8 15 23 26 20 10 0 353 351 349 340 332 336 346 346 339 336 334 325 303 304 140 151 154 157 163 165 162 159 160 163 163 162 157 144 122
359 359 360 0 1 2 2 1 1 1 2 2 3 3 3 3 3 3 3 1 1 360 359 358 358 358 357 357 356 356 356 356 356 355 355 356 357 357 357 358 358 359 358 359 3 6 7 7 7 8 13 21 27 25 17 6 360 355 352 349 340 332 334 342 343 336 331 330 320 282 238 158 147 150 159 165 165 163 161 163 164 164 162 156 143 126
Height
5770 5767 5765 5762 5759 5757 5754 5751 5748 5744 5741 5738 5734 5731 5727 5723 5721 5717 5712 5707 5703 5700 5698 5693 5686 5683 5678 5671 5665 5660 5656 5652 5648 5643 5639 5635 5630 5626 5621 5616 5611 5605 5601 5596 5592 5586 5580 5574 5570 5566 5561 5557 5552 5547 5541 5537 5532 5528 5524 5520 5516 5512 5508 5504 5499 5496 5492 5489 5486 5483 5480 5477 5476 5474 5473 5472 5470 5468 5467 5466 5466 5466 5467 5468 5469 5472
5769 5766 5764 5761 5758 5755 5752 5749 5745 5742 5738 5735 5731 5728 5724 5720 5717 5714 5708 5703 5699 5696 5693 5687 5681 5678 5673 5667 5661 5655 5650 5646 5641 5637 5632 5628 5623 5618 5613 5607 5602 5597 5593 5588 5581 5576 5570 5566 5562 5557 5552 5547 5542 5537 5531 5526 5522 5517 5512 5507 5502 5498 5494 5490 5485 5481 5477 5473 5469 5466 5463 5460 5458 5457 5455 5454 5453 5451 5449 5448 5448 5448 5448 5450 5451 5453
5768 5765 5762 5759 5756 5753 5749 5746 5743 5739 5735 5732 5728 5724 5720 5716 5713 5711 5706 5700 5695 5690 5687 5682 5676 5672 5669 5663 5657 5651 5646 5640 5635 5630 5625 5621 5616 5610 5605 5600 5595 5590 5584 5578 5572 5567 5563 5558 5553 5548 5542 5537 5532 5527 5521 5517 5512 5505 5499 5493 5489 5485 5481 5476 5470 5466 5461 5458 5454 5450 5446 5442 5439 5439 5437 5435 5434 5432 5430 5429 5429 5429 5429 5430 5432 5434
5766 5763 5760 5757 5754 5751 5747 5744 5740 5737 5732 5728 5725 5720 5716 5712 5707 5705 5702 5697 5691 5684 5680 5675 5670 5666 5662 5658 5653 5646 5640 5634 5628 5623 5618 5613 5607 5602 5598 5592 5587 5581 5575 5569 5564 5559 5554 5549 5544 5538 5533 5528 5522 5516 5511 5506 5500 5493 5487 5481 5476 5472 5466 5460 5456 5451 5447 5442 5438 5434 5429 5425 5420 5418 5417 5415 5414 5412 5410 5409 5409 5410 5410 5410 5412 5415
5764 5761 5758 5755 5752 5749 5745 5741 5737 5734 5730 5725 5721 5716 5712 5708 5703 5698 5694 5690 5687 5681 5674 5667 5663 5660 5654 5649 5645 5639 5633 5627 5620 5615 5609 5604 5600 5595 5590 5585 5579 5573 5567 5561 5556 5551 5545 5540 5535 5530 5523 5517 5511 5505 5499 5494 5487 5480 5475 5469 5464 5458 5452 5447 5442 5438 5433 5427 5421 5416 5412 5409 5404 5400 5397 5395 5393 5392 5391 5389 5389 5390 5390 5390 5392 5395
5762 5759 5756 5753 5750 5746 5742 5739 5734 5730 5727 5722 5718 5713 5708 5704 5699 5694 5688 5682 5679 5676 5669 5660 5654 5652 5648 5642 5637 5632 5625 5619 5612 5608 5602 5597 5592 5588 5582 5576 5569 5563 5558 5553 5548 5542 5537 5532 5526 5520 5513 5505 5499 5493 5488 5482 5475 5467 5461 5456 5451 5445 5440 5434 5428 5423 5416 5409 5403 5397 5392 5389 5386 5382 5379 5377 5374 5374 5373 5371 5371 5372 5372 5372 5373 5376
5760 5757 5753 5750 5746 5743 5739 5735 5731 5726 5722 5718 5714 5709 5704 5699 5694 5689 5684 5678 5672 5668 5664 5656 5646 5642 5640 5635 5629 5623 5617 5612 5607 5601 5596 5590 5584 5578 5572 5566 5561 5555 5551 5545 5540 5534 5528 5522 5515 5508 5502 5494 5487 5482 5477 5470 5462 5455 5449 5444 5439 5433 5427 5420 5413 5407 5399 5392 5385 5379 5373 5369 5366 5363 5361 5360 5357 5357 5357 5355 5355 5355 5355 5355 5356 5358
5758 5754 5751 5747 5743 5739 5735 5731 5727 5723 5718 5714 5709 5704 5700 5695 5689 5684 5679 5674 5668 5663 5659 5653 5643 5635 5632 5627 5622 5616 5609 5605 5601 5594 5588 5582 5575 5569 5563 5558 5553 5548 5543 5537 5531 5525 5517 5510 5504 5497 5490 5483 5476 5470 5464 5457 5450 5443 5438 5432 5425 5418 5410 5403 5396 5389 5382 5375 5368 5363 5357 5353 5349 5346 5344 5343 5341 5341 5340 5340 5340 5340 5340 5341 5341 5342
5755 5752 5748 5744 5740 5736 5732 5727 5723 5719 5714 5710 5705 5700 5695 5690 5685 5680 5674 5670 5664 5658 5654 5647 5637 5630 5625 5621 5614 5608 5604 5598 5592 5585 5579 5573 5567 5561 5555 5551 5545 5539 5533 5527 5520 5513 5506 5499 5493 5486 5479 5472 5465 5457 5451 5445 5438 5431 5425 5417 5409 5401 5393 5387 5380 5372 5365 5358 5352 5347 5342 5338 5334 5332 5330 5328 5327 5327 5325 5325 5326 5326 5326 5328 5328 5328
5752 5749 5745 5742 5738 5733 5729 5724 5719 5715 5710 5706 5701 5697 5691 5685 5680 5674 5669 5665 5660 5654 5649 5641 5632 5624 5620 5619 5611 5601 5597 5591 5584 5577 5570 5564 5559 5553 5548 5542 5536 5529 5523 5516 5509 5503 5496 5489 5482 5475 5467 5460 5453 5447 5440 5433 5426 5418 5411 5403 5394 5387 5380 5373 5365 5357 5350 5343 5337 5332 5328 5323 5320 5319 5317 5315 5314 5315 5313 5313 5314 5314 5314 5315 5315 5316
5750 5746 5743 5739 5735 5730 5726 5721 5716 5711 5706 5701 5697 5693 5689 5683 5678 5672 5666 5661 5656 5651 5645 5636 5629 5620 5614 5615 5609 5598 5592 5585 5578 5571 5563 5556 5551 5544 5539 5533 5526 5520 5514 5507 5501 5494 5487 5480 5472 5464 5457 5450 5444 5438 5431 5422 5414 5406 5398 5390 5383 5376 5368 5360 5352 5343 5336 5330 5324 5320 5316 5312 5308 5306 5304 5303 5303 5303 5303 5303 5303 5304 5304 5304 5305 5306
5748 5744 5740 5736 5732 5727 5723 5718 5713 5707 5701 5696 5691 5686 5682 5679 5675 5670 5664 5658 5651 5647 5641 5633 5625 5616 5608 5604 5600 5593 5587 5579 5573 5565 5557 5550 5544 5538 5532 5525 5518 5511 5505 5498 5491 5484 5476 5469 5462 5455 5448 5441 5434 5427 5419 5410 5401 5393 5386 5379 5371 5364 5356 5348 5339 5331 5324 5318 5313 5308 5305 5302 5298 5296 5293 5292 5293 5294 5294 5295 5295 5295 5296 5297 5297 5298
5748 5742 5738 5734 5729 5724 5719 5715 5710 5704 5698 5692 5686 5679 5672 5667 5665 5661 5657 5652 5646 5640 5636 5628 5620 5612 5605 5598 5592 5586 5579 5571 5565 5558 5550 5544 5537 5531 5524 5516 5508 5502 5495 5488 5480 5473 5466 5459 5452 5444 5437 5430 5422 5414 5405 5396 5387 5380 5373 5366 5358 5350 5343 5334 5326 5319 5313 5307 5302 5298 5295 5292 5289 5287 5285 5285 5285 5287 5287 5288 5288 5288 5289 5290 5291 5291
5748 5741 5736 5731 5726 5721 5715 5711 5706 5701 5695 5688 5682 5674 5666 5658 5652 5648 5644 5640 5636 5632 5629 5621 5611 5604 5599 5592 5585 5579 5571 5562 5555 5548 5541 5536 5529 5522 5514 5506 5499 5492 5485 5478 5471 5464 5457 5449 5442 5433 5425 5416 5408 5400 5392 5383 5374 5366 5360 5352 5344 5336 5329 5322 5315 5308 5302 5297 5292 5289 5286 5284 5281 5280 5279 5279 5280 5281 5281 5281 5281 5282 5283 5284 5285 5285
5744 5738 5732 5727 5722 5716 5711 5705 5699 5694 5690 5684 5677 5670 5662 5654 5646 5639 5634 5629 5623 5620 5620 5616 5604 5595 5589 5583 5577 5571 5563 5554 5546 5539 5533 5527 5521 5514 5505 5498 5490 5482 5475 5468 5462 5454 5447 5438 5430 5421 5413 5403 5395 5387 5378 5369 5361 5352 5345 5338 5329 5322 5315 5310 5304 5298 5292 5287 5284 5281 5278 5276 5275 5275 5275 5275 5275 5275 5275 5275 5275 5276 5277 5278 5279 5280
5741 5735 5729 5723 5718 5712 5707 5702 5695 5690 5684 5679 5673 5666 5659 5652 5644 5636 5631 5625 5616 5608 5609 5609 5600 5590 5582 5575 5570 5563 5555 5548 5539 5532 5526 5520 5513 5506 5498 5490 5481 5473 5467 5459 5452 5444 5435 5427 5418 5409 5400 5391 5382 5374 5365 5356 5347 5338 5331 5324 5318 5310 5303 5298 5293 5287 5283 5279 5276 5273 5272 5271 5270 5270 5270 5270 5270 5269 5269 5269 5270 5271 5271 5272 5273 5274
5738 5734 5727 5721 5715 5709 5703 5698 5692 5685 5679 5673 5668 5662 5655 5648 5641 5632 5626 5623 5615 5603 5599 5599 5593 5585 5577 5569 5564 5558 5549 5542 5534 5526 5520 5513 5506 5499 5491 5482 5473 5464 5456 5448 5439 5431 5423 5414 5406 5397 5388 5379 5369 5360 5353 5344 5335 5326 5318 5312 5306 5300 5294 5288 5283 5278 5274 5271 5269 5267 5266 5266 5266 5266 5265 5265 5265 5264 5264 5264 5265 5265 5266 5267 5268 5269
5734 5732 5726 5719 5713 5707 5700 5695 5689 5682 5676 5670 5663 5657 5650 5644 5637 5627 5617 5613 5608 5597 5590 5588 5582 5574 5569 5562 5555 5549 5540 5532 5526 5519 5512 5505 5498 5491 5483 5475 5465 5455 5445 5435 5427 5418 5409 5400 5392 5384 5376 5367 5358 5348 5340 5332 5323 5315 5308 5301 5295 5290 5284 5280 5275 5270 5266 5264 5263 5262 5261 5261 5261 5261 5260 5260 5259 5259 5259 5260 5260 5261 5261 5262 5263 5264
5730 5728 5724 5717 5710 5704 5697 5691 5686 5680 5673 5666 5659 5652 5644 5636 5631 5623 5612 5603 5596 5585 5577 5576 5572 5564 5559 5554 5545 5536 5529 5522 5517 5511 5502 5495 5488 5480 5472 5463 5454 5445 5435 5425 5416 5406 5396 5388 5380 5372 5363 5355 5347 5337 5328 5321 5313 5306 5299 5292 5286 5280 5276 5271 5267 5263 5259 5258 5257 5257 5257 5257 5256 5256 5256 5255 5255 5254 5255 5255 5256 5256 5257 5258 5259 5260
5727 5722 5719 5713 5706 5700 5694 5688 5682 5676 5669 5662 5655 5647 5639 5632 5625 5619 5612 5602 5591 5579 5568 5562 5559 5552 5547 5543 5536 5526 5519 5513 5507 5500 5492 5484 5477 5468 5459 5450 5441 5433 5424 5415 5406 5395 5385 5377 5369 5361 5352 5343 5335 5326 5318 5310 5303 5296 5291 5284 5278 5273 5268 5264 5260 5256 5254 5253 5252 5252 5252 5252 5251 5251 5251 5251 5250 5250 5250 5251 5252 5252 5253 5254 5255 5256
5726 5720 5715 5711 5704 5697 5690 5683 5676 5670 5664 5658 5651 5643 5635 5628 5621 5614 5610 5603 5592 5580 5567 5555 5547 5544 5541 5535 5528 5519 5510 5504 5497 5490 5483 5475 5467 5459 5449 5440 5430 5421 5412 5404 5395 5385 5376 5367 5359 5351 5342 5333 5324 5316 5308 5301 5294 5287 5282 5277 5271 5266 5261 5257 5253 5251 5249 5249 5248 5248 5248 5247 5246 5246 5246 5246 5246 5246 5247 5247 5248 5248 5249 5250 5251 5252
5724 5717 5712 5707 5702 5695 5688 5681 5674 5668 5661 5653 5647 5640 5631 5623 5615 5606 5600 5596 5588 5577 5569 5556 5543 5540 5540 5531 5521 5513 5503 5495 5489 5482 5476 5467 5458 5450 5440 5430 5420 5410 5402 5394 5385 5376 5367 5358 5350 5342 5333 5324 5315 5307 5300 5293 5286 5280 5275 5269 5263 5259 5254 5251 5248 5246 5245 5245 5245 5245 5244 5243 5242 5242 5242 5242 5242 5243 5243 5244 5244 5245 5245 5246 5247 5249
5722 5716 5710 5704 5698 5692 5685 5678 5671 5665 5659 5651 5643 5635 5627 5619 5611 5601 5591 5586 5580 5573 5568 5557 5541 5536 5535 5526 5515 5507 5498 5491 5484 5476 5469 5461 5452 5442 5432 5421 5412 5403 5394 5385 5375 5367 5358 5349 5341 5333 5325 5316 5307 5299 5292 5286 5279 5273 5268 5262 5257 5252 5248 5245 5243 5242 5242 5242 5241 5240 5239 5239 5238 5238 5238 5239 5239 5240 5240 5240 5241 5241 5242 5243 5244 5245
5719 5714 5708 5703 5699 5695 5688 5679 5670 5662 5654 5647 5640 5632 5623 5615 5609 5602 5592 5583 5575 5568 5561 5551 5538 5532 5530 5521 5512 5504 5496 5489 5482 5472 5463 5453 5444 5434 5423 5413 5403 5394 5384 5374 5365 5356 5348 5340 5333 5325 5317 5308 5299 5292 5285 5279 5273 5266 5261 5256 5250 5246 5243 5240 5238 5238 5238 5238 5237 5236 5235 5235 5234 5234 5234 5235 5236 5236 5237 5237 5238 5238 5239 5240 5241 5242
5715 5709 5702 5696 5691 5689 5684 5676 5668 5660 5651 5643 5636 5628 5620 5612 5605 5598 5591 5582 5572 5565 5557 5544 5532 5528 5526 5518 5508 5500 5491 5484 5476 5465 5454 5443 5432 5422 5412 5402 5392 5383 5373 5363 5354 5345 5338 5331 5324 5317 5309 5301 5292 5284 5278 5272 5266 5259 5254 5250 5245 5241 5238 5236 5235 5235 5235 5234 5233 5232 5232 5231 5231 5231 5231 5232 5232 5233 5234 5234 5235 5235 5236 5237 5238 5239
5713 5706 5699 5689 5680 5673 5667 5661 5655 5651 5646 5639 5633 5626 5618 5610 5601 5593 5586 5577 5567 5558 5551 5540 5526 5519 5519 5514 5502 5491 5482 5473 5464 5454 5444 5433 5421 5410 5399 5390 5381 5372 5362 5352 5343 5336 5329 5322 5315 5307 5300 5294 5286 5278 5271 5266 5260 5253 5248 5244 5239 5236 5233 5232 5232 5231 5231 5231 5230 5229 5229 5228 5228 5228 5228 5228 5229 5230 5231 5231 5232 5233 5233 5234 5235 5236
5711 5705 5698 5690 5680 5671 5665 5659 5651 5644 5639 5634 5628 5622 5615 5607 5598 5589 5580 5571 5561 5550 5544 5539 5525 5511 5508 5503 5490 5479 5470 5460 5450 5441 5431 5421 5410 5399 5389 5380 5371 5362 5353 5343 5334 5327 5320 5313 5306 5298 5292 5286 5279 5272 5265 5260 5254 5248 5242 5238 5234 5231 5230 5229 5228 5228 5227 5227 5226 5226 5226 5225 5225 5225 5225 5225 5226 5226 5227 5228 5229 5230 5230 5231 5232 5233
5709 5703 5697 5690 5681 5673 5667 5659 5651 5643 5635 5628 5622 5616 5610 5603 5595 5586 5576 5567 5558 5545 5536 5533 5523 5507 5498 5491 5479 5468 5459 5448 5439 5430 5419 5409 5399 5390 5381 5373 5364 5355 5345 5336 5327 5318 5311 5304 5297 5290 5283 5277 5271 5265 5259 5254 5249 5243 5238 5233 5229 5227 5226 5226 5225 5225 5224 5224 5223 5223 5223 5222 5222 5222 5222 5222 5223 5223 5224 5225 5226 5227 5227 5228 5229 5230
5708 5700 5695 5690 5682 5672 5665 5657 5649 5642 5635 5627 5618 5611 5604 5597 5589 5582 5573 5564 5555 5542 5529 5520 5512 5501 5490 5481 5470 5461 5451 5439 5430 5421 5411 5402 5392 5383 5374 5365 5356 5347 5337 5327 5318 5310 5302 5296 5290 5282 5275 5269 5263 5257 5252 5248 5244 5239 5234 5229 5225 5224 5223 5223 5222 5222 5221 5221 5221 5220 5220 5219 5219 5219 5219 5219 5220 5220 5221 5222 5223 5223 5224 5225 5226 5227
5705 5698 5692 5687 5681 5672 5664 5657 5648 5640 5634 5626 5618 5609 5601 5593 5586 5579 5571 5561 5550 5539 5525 5513 5503 5495 5486 5474 5463 5454 5444 5433 5424 5415 5406 5396 5385 5375 5365 5356 5347 5338 5328 5319 5310 5302 5295 5289 5283 5276 5269 5262 5256 5250 5246 5241 5237 5233 5229 5225 5222 5221 5220 5219 5219 5219 5218 5218 5218 5217 5217 5217 5216 5216 5216 5216 5217 5217 5218 5219 5219 5220 5221 5222 5223 5224
5703 5696 5688 5683 5679 5671 5664 5657 5649 5638 5629 5622 5616 5609 5600 5591 5583 5574 5565 5553 5540 5528 5518 5506 5495 5486 5477 5466 5455 5446 5436 5427 5418 5409 5399 5387 5376 5366 5356 5348 5339 5329 5319 5310 5302 5294 5287 5281 5276 5270 5263 5257 5250 5245 5240 5235 5231 5227 5224 5221 5219 5218 5217 5217 5216 5216 5215 5215 5215 5215 5215 5214 5213 5213 5213 5214 5214 5214 5215 5216 5216 5217 5218 5219 5220 5220
5700 5694 5687 5680 5675 5668 5659 5652 5646 5638 5629 5622 5614 5605 5596 5586 5575 5565 5555 5544 5530 5516 5506 5496 5485 5474 5465 5455 5446 5438 5429 5418 5409 5399 5387 5376 5367 5358 5348 5339 5330 5320 5310 5301 5293 5285 5278 5272 5266 5261 5256 5250 5245 5239 5234 5230 5225 5222 5219 5217 5215 5215 5214 5214 5214 5213 5212 5212 5212 5212 5212 5212 5211 5210 5210 5211 5211 5211 5212 5212 5213 5214 5215 5216 5217 5218
5696 5690 5683 5675 5670 5664 5655 5646 5638 5631 5623 5615 5604 5594 5586 5578 5568 5557 5547 5537 5526 5512 5499 5488 5478 5468 5458 5448 5437 5428 5419 5408 5398 5388 5377 5366 5358 5350 5341 5331 5322 5313 5303 5294 5285 5278 5270 5264 5258 5252 5248 5244 5238 5234 5229 5225 5221 5217 5215 5213 5212 5212 5212 5211 5211 5210 5210 5209 5209 5209 5209 5209 5208 5208 5208 5208 5209 5209 5209 5210 5211 5212 5213 5213 5214 5215
5693 5685 5678 5670 5662 5656 5649 5642 5634 5625 5613 5602 5593 5584 5575 5566 5558 5549 5540 5530 5521 5512 5500 5487 5476 5464 5453 5442 5431 5420 5410 5400 5391 5382 5372 5361 5350 5341 5333 5324 5315 5306 5297 5288 5279 5271 5264 5257 5251 5246 5241 5237 5233 5229 5225 5221 5217 5214 5211 5209 5209 5209 5209 5209 5208 5208 5207 5207 5206 5206 5206 5205 5205 5205 5205 5205 5206 5206 5207 5207 5209 5210 5210 5211 5212 5213
5690 5682 5675 5666 5657 5649 5642 5633 5623 5614 5605 5596 5589 5581 5571 5561 5552 5544 5538 5529 5515 5503 5493 5480 5468 5457 5446 5436 5426 5414 5403 5394 5387 5378 5367 5356 5346 5334 5324 5316 5308 5299 5290 5281 5272 5264 5257 5251 5245 5239 5235 5231 5227 5223 5220 5217 5214 5211 5208 5207 5207 5207 5206 5206 5206 5205 5204 5204 5203 5203 5203 5202 5202 5202 5202 5203 5203 5204 5204 5205 5207 5208 5208 5209 5210 5211
5687 5679 5671 5663 5654 5646 5638 5627 5616 5608 5604 5597 5587 5577 5566 5555 5542 5530 5525 5519 5505 5490 5479 5469 5459 5450 5439 5428 5419 5409 5399 5390 5384 5376 5364 5352 5342 5330 5318 5308 5299 5291 5283 5274 5266 5258 5251 5245 5239 5233 5229 5225 5222 5218 5215 5212 5209 5207 5205 5204 5204 5204 5204 5203 5203 5203 5202 5201 5201 5200 5199 5199 5199 5199 5199 5200 5200 5201 5201 5203 5204 5205 5206 5207 5209 5210
5683 5675 5667 5659 5650 5640 5631 5625 5618 5609 5599 5587 5576 5565 5554 5544 5534 5521 5509 5502 5493 5483 5472 5461 5450 5441 5430 5420 5411 5402 5392 5384 5378 5371 5360 5348 5337 5326 5314 5303 5293 5284 5276 5268 5260 5252 5245 5239 5233 5228 5223 5220 5217 5213 5210 5208 5206 5204 5203 5202 5202 5202 5202 5202 5201 5201 5200 5199 5198 5197 5196 5196 5195 5195 5196 5196 5197 5197 5199 5201 5202 5203 5204 5206 5207 5209
5680 5671 5662 5653 5645 5635 5625 5616 5607 5598 5588 5578 5567 5558 5550 5542 5533 5522 5509 5499 5492 5483 5470 5456 5444 5433 5423 5413 5403 5394 5384 5374 5367 5360 5351 5341 5331 5320 5308 5297 5287 5278 5269 5260 5252 5245 5239 5233 5227 5223 5219 5215 5212 5209 5206 5204 5202 5201 5200 5200 5201 5201 5200 5200 5200 5199 5198 5197 5196 5195 5193 5192 5192 5192 5192 5192 5193 5195 5197 5199 5200 5201 5203 5205 5206 5208
5678 5669 5659 5650 5641 5631 5620 5608 5597 5587 5580 5574 5566 5557 5549 5538 5527 5518 5513 5506 5494 5478 5463 5451 5440 5429 5418 5407 5397 5387 5375 5363 5355 5349 5341 5332 5322 5311 5299 5289 5280 5271 5263 5255 5246 5238 5232 5226 5221 5217 5214 5211 5208 5206 5204 5201 5199 5198 5198 5199 5199 5199 5199 5199 5198 5197 5196 5195 5194 5192 5191 5190 5189 5188 5189 5189 5190 5192 5195 5197 5198 5200 5202 5204 5206 5208
5675 5666 5658 5649 5641 5631 5620 5610 5599 5588 5577 5569 5562 5553 5544 5535 5526 5517 5506 5494 5480 5467 5456 5446 5436 5426 5415 5405 5395 5384 5372 5358 5347 5341 5333 5323 5314 5303 5292 5282 5273 5264 5255 5248 5241 5233 5227 5221 5216 5212 5209 5206 5204 5202 5200 5199 5197 5196 5196 5197 5197 5197 5198 5197 5197 5196 5195 5194 5192 5190 5189 5188 5187 5186 5186 5187 5189 5191 5193 5195 5197 5199 5201 5204 5206 5208
5674 5665 5656 5647 5639 5630 5621 5610 5599 5590 5579 5568 5557 5547 5538 5533 5526 5513 5496 5479 5469 5463 5455 5445 5434 5424 5413 5402 5392 5382 5373 5362 5349 5339 5330 5319 5308 5298 5288 5278 5268 5260 5251 5243 5236 5229 5223 5217 5212 5208 5205 5202 5200 5198 5197 5196 5195 5194 5195 5196 5196 5196 5196 5196 5196 5195 5194 5192 5191 5189 5188 5187 5186 5186 5186 5187 5188 5190 5192 5194 5196 5199 5201 5204 5206 5208
5671 5662 5652 5643 5634 5626 5618 5607 5597 5588 5578 5568 5559 5549 5538 5526 5514 5502 5493 5483 5473 5463 5454 5443 5432 5421 5410 5400 5390 5380 5371 5362 5350 5339 5328 5317 5305 5293 5283 5272 5264 5256 5248 5240 5232 5225 5220 5215 5210 5205 5202 5199 5197 5196 5195 5194 5193 5193 5194 5195 5195 5195 5195 5195 5195 5194 5193 5192 5190 5189 5188 5187 5186 5186 5186 5187 5189 5190 5192 5194 5197 5200 5202 5204 5206 5208
5667 5658 5648 5639 5630 5620 5610 5598 5586 5576 5568 5560 5553 5544 5532 5518 5507 5499 5493 5487 5476 5464 5452 5441 5430 5418 5406 5396 5387 5378 5368 5358 5348 5338 5327 5316 5302 5289 5277 5267 5258 5251 5244 5236 5229 5222 5216 5211 5207 5202 5199 5197 5195 5194 5193 5193 5192 5193 5193 5194 5194 5194 5194 5194 5194 5193 5192 5191 5191 5190 5189 5188 5188 5188 5188 5189 5190 5191 5193 5195 5198 5200 5203 5205 5207 5209
5664 5655 5644 5633 5622 5611 5602 5593 5583 5573 5565 5557 5547 5539 5530 5521 5512 5501 5491 5482 5474 5462 5449 5437 5426 5415 5403 5391 5382 5373 5363 5353 5343 5333 5321 5310 5297 5284 5273 5264 5255 5247 5240 5233 5226 5219 5213 5208 5204 5200 5197 5195 5193 5192 5192 5192 5192 5192 5193 5193 5193 5193 5194 5194 5193 5193 5192 5192 5191 5191 5190 5189 5189 5189 5189 5190 5191 5193 5194 5197 5199 5202 5204 5206 5208 5209
5662 5652 5643 5633 5623 5612 5603 5596 5588 5578 5569 5560 5551 5542 5534 5525 5515 5504 5491 5479 5469 5459 5447 5434 5421 5409 5398 5387 5378 5369 5359 5348 5338 5326 5315 5304 5292 5279 5269 5260 5252 5244 5237 5230 5223 5217 5211 5206 5202 5198 5196 5194 5192 5191 5191 5191 5192 5192 5193 5193 5193 5193 5193 5194 5193 5192 5192 5192 5191 5191 5190 5190 5190 5190 5191 5191 5192 5194 5196 5198 5201 5203 5205 5206 5208 5209
5660 5653 5645 5637 5629 5621 5613 5605 5597 5587 5576 5567 5557 5546 5535 5525 5514 5504 5494 5481 5468 5457 5445 5432 5418 5407 5396 5385 5375 5366 5356 5344 5333 5323 5311 5299 5288 5276 5265 5257 5250 5242 5235 5228 5221 5216 5210 5205 5201 5197 5195 5193 5192 5191 5191 5192 5192 5193 5193 5193 5193 5193 5193 5193 5193 5192 5192 5192 5191 5191 5191 5191 5190 5191 5191 5192 5193 5195 5197 5199 5201 5203 5205 5206 5208 5209
5662 5656 5648 5639 5630 5622 5613 5604 5595 5584 5573 5565 5557 5549 5540 5531 5520 5507 5495 5483 5469 5455 5441 5430 5420 5409 5398 5386 5374 5364 5353 5341 5330 5320 5308 5295 5283 5272 5262 5255 5247 5239 5232 5225 5219 5214 5209 5204 5200 5197 5195 5194 5192 5192 5192 5192 5193 5193 5194 5194 5193 5193 5193 5193 5193 5192 5192 5192 5191 5191 5191 5191 5191 5191 5192 5193 5194 5196 5198 5200 5202 5204 5205 5207 5208 5209
5662 5654 5646 5638 5630 5620 5611 5603 5596 5587 5576 5565 5557 5548 5540 5531 5521 5509 5495 5483 5470 5458 5446 5434 5421 5408 5396 5384 5372 5361 5351 5340 5328 5316 5304 5291 5279 5269 5260 5252 5244 5237 5230 5224 5218 5213 5208 5204 5200 5198 5196 5194 5193 5193 5193 5194 5194 5194 5194 5195 5194 5193 5193 5193 5193 5192 5192 5192 5191 5191 5191 5191 5191 5191 5192 5193 5195 5197 5199 5201 5203 5205 5206 5207 5209 5210
5659 5651 5644 5638 5631 5623 5616 5609 5603 5595 5585 5572 5559 5547 5535 5525 5516 5506 5494 5482 5471 5461 5451 5439 5424 5408 5393 5381 5370 5360 5350 5339 5326 5314 5302 5289 5278 5267 5258 5250 5242 5234 5228 5222 5217 5212 5207 5204 5201 5199 5196 5195 5194 5194 5195 5195 5195 5195 5195 5195 5194 5194 5193 5193 5192 5192 5192 5192 5191 5191 5191 5191 5191 5191 5192 5194 5196 5198 5200 5202 5203 5205 5206 5208 5209 5209
5658 5651 5643 5636 5628 5619 5610 5600 5590 5582 5573 5562 5551 5540 5530 5521 5513 5503 5493 5482 5470 5458 5446 5435 5424 5411 5395 5380 5368 5358 5348 5337 5325 5313 5301 5288 5277 5266 5257 5249 5241 5234 5227 5221 5217 5212 5208 5205 5202 5200 5198 5197 5196 5196 5197 5197 5197 5197 5196 5196 5195 5194 5193 5193 5192 5192 5192 5191 5191 5191 5191 5191 5191 5191 5192 5194 5196 5198 5200 5202 5203 5205 5207 5208 5209 5209
5655 5647 5638 5629 5620 5611 5601 5592 5582 5572 5563 5555 5548 5539 5531 5522 5512 5501 5490 5479 5468 5455 5440 5427 5416 5406 5395 5381 5368 5356 5346 5336 5325 5314 5303 5291 5279 5268 5258 5249 5241 5234 5228 5222 5218 5214 5210 5207 5204 5201 5200 5199 5199 5199 5199 5199 5198 5197 5197 5196 5195 5194 5193 5193 5192 5192 5191 5191 5191 5191 5190 5190 5191 5191 5192 5194 5196 5199 5201 5203 5204 5206 5207 5208 5209 5210